Location: Hilton Head Island
(32.2163°N, 80.7526°W)
Time: 01:42:29
(UTC-05:00)

Transit 2A Rocket - Pass Details

Date: 15 February 2026
Orbit: 583 x 900 km, 66.7° (Epoch: 7 March)

Event Time Altitude Azimuth Distance (km) Brightness Sun altitude
Rises 01:22:30 0° 348° (NNW) 3,336 - -67.8°
Reaches altitude 10° 01:25:33 10° 3° (N) 2,343 - -67.5°
Maximum altitude 01:29:41 22° 53° (NE) 1,576 - -67.0°
Drops below altitude 10° 01:33:32 10° 104° (ESE) 2,168 - -66.5°
Sets 01:36:14 0° 120° (ESE) 3,023 - -66.2°
